GFSFLT1_prec_pwat_000.txt.gz
Precipitable_Water
0.41 0.44 0.48 0.52 0.55 0.56 0.56 0.55 0.53 0.57 0.60 0.62 0.63 0.64 0.65 0.66 0.68 0.72 0.73 0.75 0.72 0.67 0.67 0.67 0.65 0.62 0.61 0.61 0.59 0.59 0.58 0.57
0.44 0.46 0.51 0.53 0.55 0.56 0.56 0.55 0.57 0.60 0.59 0.59 0.59 0.58 0.60 0.61 0.63 0.68 0.74 0.72 0.69 0.65 0.63 0.64 0.66 0.62 0.61 0.61 0.60 0.57 0.57 0.60
0.44 0.49 0.53 0.55 0.57 0.56 0.59 0.60 0.62 0.63 0.62 0.62 0.61 0.61 0.61 0.61 0.62 0.63 0.66 0.70 0.68 0.66 0.63 0.62 0.64 0.63 0.61 0.60 0.60 0.57 0.57 0.58
0.46 0.49 0.53 0.56 0.56 0.58 0.60 0.63 0.64 0.65 0.65 0.63 0.62 0.62 0.61 0.60 0.60 0.60 0.62 0.64 0.67 0.65 0.64 0.63 0.62 0.61 0.58 0.59 0.59 0.56 0.51 0.54
0.49 0.51 0.53 0.56 0.58 0.61 0.62 0.65 0.66 0.67 0.68 0.66 0.63 0.59 0.57 0.60 0.61 0.61 0.62 0.64 0.65 0.65 0.63 0.62 0.62 0.62 0.61 0.62 0.60 0.57 0.53 0.47
0.51 0.53 0.57 0.59 0.62 0.64 0.68 0.69 0.70 0.72 0.74 0.72 0.67 0.62 0.61 0.63 0.64 0.62 0.61 0.62 0.62 0.62 0.62 0.62 0.62 0.62 0.59 0.57 0.55 0.53 0.51 0.47
0.59 0.63 0.64 0.66 0.70 0.72 0.73 0.74 0.75 0.77 0.76 0.74 0.68 0.61 0.58 0.61 0.63 0.63 0.63 0.64 0.64 0.65 0.65 0.62 0.61 0.59 0.58 0.58 0.59 0.55 0.53 0.51
0.62 0.63 0.67 0.69 0.72 0.73 0.75 0.76 0.75 0.77 0.76 0.69 0.63 0.59 0.58 0.59 0.59 0.60 0.60 0.61 0.62 0.67 0.62 0.59 0.58 0.56 0.58 0.59 0.57 0.56 0.55 0.52
0.64 0.67 0.71 0.72 0.72 0.73 0.75 0.75 0.70 0.69 0.67 0.64 0.61 0.58 0.57 0.57 0.57 0.56 0.55 0.58 0.58 0.60 0.58 0.58 0.60 0.62 0.60 0.62 0.59 0.62 0.60 0.49
0.65 0.68 0.70 0.70 0.71 0.73 0.74 0.71 0.68 0.64 0.61 0.58 0.56 0.54 0.53 0.51 0.51 0.51 0.50 0.51 0.53 0.55 0.61 0.67 0.67 0.68 0.67 0.62 0.53 0.50 0.47 0.43
0.63 0.65 0.68 0.71 0.71 0.72 0.70 0.70 0.65 0.63 0.55 0.55 0.52 0.51 0.50 0.48 0.46 0.45 0.47 0.50 0.54 0.61 0.66 0.68 0.64 0.58 0.53 0.49 0.46 0.43 0.39 0.38
0.63 0.65 0.69 0.71 0.70 0.68 0.66 0.64 0.62 0.54 0.53 0.52 0.50 0.48 0.46 0.44 0.43 0.45 0.48 0.51 0.55 0.58 0.53 0.50 0.48 0.45 0.43 0.41 0.39 0.38 0.36 0.34
0.66 0.66 0.66 0.64 0.62 0.62 0.61 0.60 0.55 0.53 0.52 0.48 0.46 0.45 0.44 0.43 0.44 0.46 0.48 0.46 0.47 0.46 0.44 0.42 0.38 0.36 0.36 0.34 0.32 0.29 0.25 0.22
0.64 0.63 0.60 0.60 0.58 0.57 0.56 0.56 0.52 0.52 0.51 0.45 0.42 0.41 0.40 0.41 0.42 0.45 0.45 0.43 0.41 0.41 0.39 0.36 0.34 0.33 0.30 0.26 0.24 0.22 0.21 0.21
0.61 0.59 0.58 0.59 0.58 0.55 0.53 0.50 0.53 0.50 0.46 0.41 0.37 0.37 0.38 0.40 0.42 0.43 0.43 0.43 0.42 0.40 0.37 0.36 0.32 0.28 0.24 0.22 0.21 0.21 0.21 0.22
0.60 0.57 0.56 0.58 0.53 0.51 0.50 0.50 0.49 0.46 0.42 0.39 0.38 0.40 0.44 0.44 0.44 0.45 0.50 0.47 0.40 0.39 0.37 0.31 0.27 0.24 0.21 0.21 0.22 0.22 0.22 0.22
0.57 0.57 0.54 0.52 0.48 0.48 0.47 0.47 0.46 0.47 0.46 0.48 0.49 0.48 0.49 0.50 0.52 0.50 0.46 0.43 0.40 0.37 0.31 0.24 0.20 0.19 0.21 0.23 0.24 0.23 0.22 0.21
0.53 0.53 0.54 0.50 0.46 0.47 0.45 0.44 0.46 0.45 0.47 0.50 0.53 0.54 0.52 0.48 0.46 0.44 0.42 0.38 0.35 0.29 0.22 0.19 0.18 0.20 0.22 0.23 0.23 0.22 0.20 0.21
0.51 0.56 0.52 0.51 0.51 0.46 0.45 0.44 0.43 0.44 0.44 0.46 0.49 0.49 0.47 0.42 0.38 0.35 0.35 0.32 0.26 0.21 0.19 0.19 0.20 0.20 0.22 0.21 0.21 0.21 0.22 0.25

GFSFLT1_prec_pwat_003.txt.gz
Precipitable_Water
0.44 0.47 0.51 0.55 0.61 0.63 0.62 0.62 0.62 0.63 0.64 0.65 0.64 0.63 0.64 0.65 0.65 0.66 0.70 0.72 0.72 0.70 0.68 0.67 0.68 0.64 0.61 0.61 0.59 0.60 0.58 0.57
0.46 0.47 0.52 0.57 0.60 0.59 0.58 0.57 0.61 0.62 0.62 0.61 0.59 0.59 0.60 0.60 0.61 0.63 0.65 0.67 0.69 0.68 0.64 0.63 0.64 0.61 0.60 0.60 0.59 0.58 0.56 0.59
0.45 0.49 0.53 0.56 0.58 0.58 0.57 0.60 0.63 0.65 0.65 0.65 0.65 0.64 0.63 0.62 0.62 0.62 0.64 0.65 0.66 0.67 0.64 0.61 0.61 0.60 0.59 0.58 0.57 0.55 0.56 0.58
0.48 0.50 0.53 0.57 0.58 0.59 0.62 0.63 0.64 0.66 0.68 0.69 0.69 0.68 0.67 0.63 0.62 0.60 0.62 0.65 0.66 0.66 0.64 0.62 0.61 0.62 0.60 0.59 0.57 0.54 0.49 0.54
0.49 0.52 0.55 0.59 0.62 0.65 0.65 0.66 0.68 0.69 0.70 0.69 0.67 0.65 0.62 0.63 0.61 0.59 0.60 0.65 0.65 0.64 0.63 0.62 0.62 0.62 0.62 0.60 0.60 0.56 0.54 0.48
0.52 0.56 0.61 0.64 0.63 0.65 0.70 0.72 0.73 0.74 0.75 0.73 0.70 0.67 0.62 0.60 0.57 0.55 0.56 0.60 0.63 0.63 0.63 0.63 0.64 0.63 0.63 0.64 0.61 0.56 0.52 0.48
0.59 0.64 0.67 0.68 0.72 0.73 0.73 0.74 0.72 0.73 0.74 0.72 0.67 0.63 0.58 0.54 0.53 0.52 0.53 0.55 0.57 0.58 0.62 0.63 0.63 0.63 0.62 0.60 0.54 0.51 0.51 0.51
0.60 0.62 0.67 0.70 0.70 0.70 0.70 0.69 0.67 0.68 0.67 0.64 0.61 0.58 0.56 0.53 0.50 0.50 0.50 0.50 0.50 0.51 0.53 0.55 0.59 0.59 0.62 0.62 0.59 0.59 0.59 0.60
0.65 0.68 0.68 0.69 0.69 0.68 0.67 0.67 0.65 0.65 0.61 0.55 0.54 0.53 0.51 0.50 0.50 0.47 0.45 0.45 0.45 0.48 0.51 0.56 0.60 0.61 0.64 0.61 0.62 0.64 0.65 0.63
0.66 0.67 0.67 0.68 0.66 0.66 0.65 0.62 0.60 0.58 0.54 0.52 0.51 0.50 0.45 0.43 0.44 0.44 0.42 0.44 0.46 0.51 0.53 0.56 0.59 0.61 0.63 0.64 0.63 0.60 0.57 0.53
0.64 0.65 0.68 0.67 0.66 0.65 0.64 0.63 0.60 0.58 0.54 0.51 0.48 0.43 0.40 0.40 0.41 0.41 0.43 0.46 0.49 0.50 0.51 0.52 0.55 0.58 0.56 0.52 0.49 0.47 0.45 0.45
0.65 0.67 0.69 0.68 0.66 0.63 0.61 0.61 0.59 0.53 0.51 0.49 0.44 0.40 0.38 0.39 0.40 0.41 0.43 0.46 0.46 0.45 0.46 0.47 0.48 0.45 0.43 0.41 0.38 0.36 0.35 0.33
0.64 0.67 0.69 0.66 0.65 0.64 0.59 0.57 0.53 0.49 0.49 0.47 0.43 0.39 0.36 0.36 0.36 0.39 0.42 0.42 0.46 0.44 0.41 0.40 0.39 0.37 0.36 0.34 0.31 0.29 0.26 0.23
0.62 0.64 0.63 0.63 0.64 0.63 0.55 0.54 0.49 0.50 0.48 0.44 0.40 0.36 0.34 0.36 0.38 0.40 0.41 0.43 0.43 0.43 0.42 0.39 0.38 0.36 0.33 0.30 0.27 0.24 0.23 0.23
0.62 0.64 0.60 0.61 0.61 0.56 0.50 0.47 0.48 0.47 0.45 0.41 0.39 0.36 0.35 0.38 0.40 0.42 0.45 0.47 0.45 0.43 0.40 0.38 0.36 0.32 0.28 0.25 0.23 0.21 0.21 0.21
0.59 0.62 0.58 0.58 0.58 0.52 0.49 0.48 0.48 0.46 0.43 0.42 0.41 0.41 0.40 0.42 0.46 0.47 0.48 0.48 0.45 0.43 0.40 0.37 0.34 0.30 0.25 0.23 0.23 0.22 0.21 0.21
0.58 0.55 0.53 0.54 0.52 0.51 0.54 0.51 0.46 0.45 0.43 0.42 0.46 0.49 0.49 0.49 0.48 0.48 0.47 0.47 0.47 0.43 0.37 0.33 0.29 0.24 0.26 0.25 0.24 0.22 0.20 0.18
0.56 0.53 0.52 0.52 0.50 0.54 0.49 0.45 0.45 0.43 0.44 0.45 0.47 0.49 0.47 0.48 0.48 0.46 0.44 0.39 0.36 0.33 0.31 0.29 0.23 0.23 0.24 0.24 0.22 0.20 0.18 0.17
0.51 0.51 0.53 0.52 0.53 0.50 0.45 0.46 0.45 0.47 0.44 0.41 0.40 0.39 0.38 0.39 0.38 0.35 0.33 0.31 0.29 0.27 0.24 0.23 0.23 0.23 0.22 0.21 0.20 0.18 0.17 0.19

GFSFLT1_prec_pwat_006.txt.gz
Precipitable_Water
0.46 0.47 0.50 0.55 0.62 0.67 0.69 0.67 0.67 0.68 0.68 0.68 0.68 0.68 0.69 0.69 0.67 0.66 0.67 0.69 0.70 0.70 0.68 0.67 0.66 0.62 0.60 0.59 0.55 0.57 0.57 0.55
0.46 0.48 0.51 0.54 0.60 0.65 0.64 0.62 0.64 0.65 0.66 0.65 0.65 0.63 0.64 0.65 0.66 0.64 0.65 0.65 0.67 0.69 0.68 0.66 0.67 0.63 0.60 0.59 0.56 0.54 0.53 0.56
0.44 0.47 0.51 0.56 0.60 0.62 0.62 0.62 0.65 0.66 0.67 0.66 0.67 0.67 0.67 0.68 0.70 0.68 0.65 0.63 0.62 0.64 0.65 0.63 0.63 0.62 0.60 0.59 0.57 0.55 0.55 0.56
0.46 0.50 0.54 0.59 0.61 0.64 0.66 0.66 0.65 0.66 0.67 0.68 0.69 0.70 0.70 0.68 0.68 0.66 0.64 0.61 0.59 0.60 0.62 0.62 0.61 0.62 0.58 0.57 0.56 0.54 0.50 0.55
0.51 0.55 0.58 0.60 0.63 0.66 0.68 0.68 0.69 0.70 0.71 0.69 0.66 0.64 0.62 0.63 0.63 0.62 0.60 0.59 0.57 0.58 0.61 0.63 0.65 0.66 0.62 0.59 0.58 0.60 0.57 0.52
0.54 0.58 0.61 0.65 0.66 0.68 0.71 0.72 0.71 0.70 0.70 0.70 0.66 0.61 0.61 0.61 0.58 0.54 0.52 0.52 0.54 0.54 0.54 0.56 0.56 0.58 0.60 0.61 0.61 0.62 0.60 0.55
0.59 0.64 0.68 0.69 0.71 0.72 0.73 0.71 0.69 0.69 0.69 0.67 0.64 0.60 0.55 0.51 0.48 0.46 0.45 0.45 0.44 0.44 0.45 0.47 0.49 0.52 0.53 0.55 0.58 0.55 0.54 0.54
0.59 0.63 0.66 0.70 0.70 0.71 0.72 0.71 0.68 0.70 0.68 0.63 0.59 0.55 0.53 0.47 0.42 0.38 0.37 0.38 0.37 0.37 0.39 0.40 0.43 0.47 0.50 0.53 0.56 0.57 0.57 0.59
0.65 0.68 0.69 0.68 0.69 0.70 0.71 0.70 0.69 0.68 0.63 0.58 0.56 0.55 0.51 0.45 0.39 0.37 0.37 0.38 0.38 0.42 0.43 0.45 0.47 0.50 0.53 0.56 0.58 0.60 0.61 0.62
0.64 0.67 0.68 0.69 0.70 0.71 0.69 0.66 0.65 0.64 0.62 0.58 0.56 0.52 0.45 0.40 0.40 0.38 0.38 0.41 0.45 0.47 0.49 0.50 0.52 0.52 0.53 0.59 0.60 0.60 0.58 0.57
0.64 0.66 0.67 0.69 0.69 0.69 0.69 0.68 0.64 0.62 0.58 0.54 0.49 0.47 0.46 0.42 0.39 0.36 0.40 0.44 0.47 0.49 0.49 0.47 0.48 0.49 0.50 0.52 0.51 0.49 0.48 0.48
0.62 0.64 0.67 0.69 0.70 0.69 0.67 0.63 0.57 0.52 0.50 0.50 0.51 0.48 0.43 0.38 0.36 0.37 0.40 0.44 0.44 0.41 0.43 0.45 0.47 0.45 0.44 0.42 0.41 0.40 0.37 0.33
0.62 0.64 0.67 0.70 0.66 0.65 0.63 0.57 0.54 0.50 0.52 0.53 0.50 0.46 0.40 0.37 0.36 0.38 0.41 0.39 0.39 0.41 0.45 0.46 0.42 0.39 0.38 0.37 0.35 0.33 0.30 0.27
0.61 0.62 0.64 0.66 0.64 0.64 0.64 0.58 0.54 0.56 0.56 0.51 0.45 0.40 0.37 0.38 0.37 0.39 0.41 0.42 0.43 0.45 0.46 0.45 0.42 0.40 0.38 0.36 0.33 0.29 0.26 0.23
0.54 0.57 0.61 0.61 0.60 0.60 0.57 0.53 0.57 0.55 0.53 0.46 0.41 0.40 0.38 0.40 0.43 0.43 0.45 0.46 0.47 0.49 0.49 0.46 0.43 0.39 0.35 0.33 0.30 0.25 0.24 0.23
0.55 0.58 0.57 0.56 0.57 0.56 0.53 0.54 0.51 0.51 0.46 0.44 0.43 0.45 0.46 0.45 0.44 0.45 0.45 0.47 0.49 0.49 0.48 0.45 0.40 0.36 0.34 0.31 0.27 0.25 0.24 0.22
0.59 0.56 0.54 0.53 0.50 0.48 0.50 0.50 0.50 0.47 0.44 0.45 0.47 0.46 0.46 0.47 0.45 0.44 0.44 0.44 0.44 0.44 0.40 0.34 0.32 0.31 0.29 0.29 0.28 0.26 0.24 0.21
0.57 0.55 0.48 0.46 0.49 0.50 0.48 0.44 0.44 0.44 0.42 0.39 0.40 0.39 0.38 0.38 0.39 0.39 0.37 0.34 0.32 0.30 0.29 0.28 0.26 0.26 0.27 0.27 0.25 0.23 0.20 0.19
0.52 0.46 0.48 0.50 0.51 0.46 0.42 0.41 0.40 0.38 0.36 0.37 0.37 0.37 0.32 0.32 0.30 0.28 0.26 0.25 0.23 0.23 0.23 0.24 0.24 0.23 0.23 0.22 0.21 0.20 0.19 0.19

GFSFLT1_prec_pwat_009.txt.gz
Precipitable_Water
0.52 0.48 0.50 0.54 0.68 0.77 0.79 0.76 0.71 0.73 0.73 0.74 0.73 0.72 0.72 0.73 0.72 0.72 0.73 0.74 0.74 0.72 0.68 0.65 0.68 0.67 0.64 0.63 0.60 0.60 0.55 0.52
0.46 0.48 0.50 0.53 0.59 0.66 0.70 0.67 0.69 0.71 0.69 0.64 0.64 0.64 0.65 0.66 0.68 0.69 0.70 0.71 0.69 0.68 0.66 0.64 0.64 0.63 0.63 0.63 0.61 0.57 0.54 0.57
0.44 0.48 0.53 0.58 0.62 0.66 0.66 0.65 0.66 0.65 0.66 0.66 0.66 0.66 0.67 0.68 0.70 0.70 0.68 0.66 0.64 0.62 0.60 0.59 0.60 0.60 0.63 0.64 0.63 0.58 0.57 0.58
0.45 0.50 0.57 0.61 0.63 0.65 0.66 0.67 0.68 0.70 0.71 0.71 0.71 0.70 0.69 0.68 0.67 0.65 0.64 0.63 0.59 0.56 0.56 0.57 0.57 0.59 0.58 0.62 0.63 0.61 0.55 0.58
0.51 0.56 0.60 0.63 0.66 0.71 0.73 0.74 0.73 0.74 0.75 0.71 0.68 0.64 0.61 0.63 0.62 0.60 0.56 0.55 0.54 0.52 0.50 0.48 0.49 0.51 0.51 0.54 0.59 0.60 0.62 0.56
0.56 0.61 0.65 0.68 0.71 0.72 0.73 0.74 0.74 0.75 0.75 0.72 0.69 0.66 0.66 0.64 0.60 0.54 0.51 0.49 0.45 0.43 0.42 0.41 0.41 0.41 0.42 0.44 0.47 0.50 0.55 0.56
0.60 0.66 0.69 0.69 0.72 0.73 0.75 0.74 0.73 0.75 0.73 0.71 0.69 0.66 0.64 0.59 0.56 0.51 0.45 0.42 0.41 0.41 0.41 0.40 0.40 0.41 0.43 0.45 0.46 0.47 0.47 0.50
0.60 0.63 0.65 0.69 0.71 0.72 0.74 0.73 0.70 0.73 0.73 0.71 0.68 0.64 0.61 0.54 0.49 0.42 0.40 0.38 0.39 0.40 0.43 0.44 0.44 0.44 0.45 0.47 0.49 0.51 0.53 0.54
0.65 0.66 0.68 0.70 0.71 0.72 0.73 0.71 0.69 0.70 0.67 0.64 0.63 0.61 0.55 0.49 0.45 0.44 0.42 0.40 0.40 0.45 0.46 0.48 0.49 0.49 0.51 0.51 0.52 0.53 0.54 0.55
0.63 0.66 0.67 0.69 0.71 0.72 0.72 0.72 0.68 0.64 0.61 0.57 0.52 0.53 0.51 0.47 0.48 0.45 0.39 0.40 0.43 0.47 0.49 0.50 0.52 0.52 0.54 0.55 0.54 0.54 0.53 0.53
0.60 0.62 0.64 0.68 0.71 0.72 0.72 0.71 0.65 0.63 0.61 0.57 0.57 0.55 0.52 0.50 0.41 0.39 0.40 0.43 0.48 0.50 0.49 0.46 0.46 0.49 0.51 0.50 0.49 0.48 0.45 0.44
0.59 0.62 0.64 0.66 0.68 0.68 0.67 0.68 0.68 0.64 0.59 0.59 0.57 0.54 0.48 0.41 0.40 0.40 0.41 0.45 0.46 0.43 0.44 0.46 0.48 0.51 0.50 0.44 0.42 0.41 0.38 0.37
0.60 0.59 0.60 0.63 0.63 0.62 0.63 0.65 0.62 0.58 0.57 0.55 0.52 0.46 0.43 0.38 0.37 0.39 0.42 0.41 0.41 0.43 0.45 0.48 0.50 0.48 0.46 0.41 0.40 0.38 0.35 0.33
0.58 0.59 0.61 0.62 0.61 0.62 0.60 0.58 0.56 0.55 0.54 0.51 0.46 0.42 0.40 0.41 0.42 0.45 0.46 0.46 0.46 0.47 0.49 0.49 0.48 0.46 0.42 0.39 0.36 0.35 0.33 0.31
0.60 0.61 0.60 0.58 0.57 0.57 0.54 0.51 0.49 0.47 0.46 0.42 0.41 0.43 0.45 0.46 0.46 0.46 0.46 0.47 0.46 0.47 0.47 0.46 0.46 0.44 0.41 0.37 0.34 0.33 0.30 0.27
0.60 0.59 0.57 0.54 0.50 0.47 0.46 0.47 0.48 0.47 0.45 0.45 0.45 0.45 0.49 0.46 0.42 0.41 0.42 0.43 0.42 0.44 0.43 0.41 0.36 0.33 0.32 0.32 0.30 0.28 0.26 0.26
0.59 0.55 0.51 0.45 0.46 0.46 0.47 0.45 0.43 0.45 0.45 0.40 0.39 0.39 0.38 0.36 0.36 0.35 0.36 0.34 0.31 0.29 0.27 0.27 0.26 0.26 0.27 0.28 0.28 0.26 0.25 0.24
0.57 0.50 0.42 0.45 0.50 0.48 0.41 0.38 0.40 0.40 0.37 0.36 0.34 0.34 0.32 0.30 0.29 0.26 0.23 0.22 0.22 0.22 0.22 0.23 0.23 0.24 0.23 0.24 0.24 0.23 0.22 0.21
0.47 0.43 0.45 0.50 0.45 0.38 0.35 0.36 0.37 0.36 0.33 0.34 0.36 0.33 0.30 0.28 0.24 0.21 0.20 0.21 0.21 0.21 0.21 0.21 0.20 0.21 0.22 0.21 0.21 0.22 0.21 0.21

GFSFLT1_prec_pwat_012.txt.gz
Precipitable_Water
0.59 0.62 0.57 0.56 0.68 0.79 0.93 0.98 0.89 0.84 0.82 0.79 0.77 0.74 0.76 0.77 0.73 0.72 0.74 0.74 0.75 0.74 0.72 0.72 0.75 0.73 0.69 0.67 0.65 0.66 0.64 0.60
0.56 0.53 0.55 0.58 0.67 0.79 0.85 0.84 0.78 0.74 0.72 0.70 0.69 0.68 0.71 0.73 0.76 0.77 0.77 0.76 0.75 0.72 0.70 0.69 0.68 0.66 0.65 0.66 0.65 0.64 0.63 0.66
0.49 0.54 0.59 0.64 0.65 0.67 0.70 0.70 0.71 0.72 0.72 0.73 0.74 0.75 0.75 0.77 0.78 0.77 0.77 0.74 0.71 0.67 0.63 0.61 0.60 0.58 0.58 0.59 0.61 0.60 0.62 0.65
0.48 0.53 0.59 0.63 0.66 0.69 0.71 0.74 0.76 0.77 0.77 0.77 0.75 0.76 0.75 0.72 0.72 0.71 0.71 0.70 0.65 0.60 0.58 0.56 0.52 0.50 0.48 0.49 0.51 0.51 0.50 0.57
0.54 0.58 0.62 0.67 0.72 0.76 0.77 0.77 0.76 0.76 0.76 0.73 0.72 0.69 0.66 0.70 0.70 0.71 0.70 0.68 0.62 0.58 0.51 0.46 0.46 0.47 0.46 0.47 0.49 0.51 0.52 0.47
0.58 0.62 0.67 0.71 0.74 0.76 0.77 0.76 0.76 0.77 0.77 0.77 0.73 0.71 0.71 0.72 0.70 0.67 0.62 0.57 0.54 0.48 0.50 0.49 0.47 0.48 0.47 0.47 0.48 0.50 0.52 0.51
0.62 0.66 0.68 0.70 0.76 0.77 0.78 0.77 0.77 0.80 0.80 0.76 0.74 0.73 0.69 0.65 0.62 0.55 0.50 0.49 0.44 0.48 0.50 0.49 0.49 0.49 0.50 0.50 0.50 0.50 0.50 0.51
0.62 0.66 0.69 0.72 0.74 0.76 0.76 0.76 0.75 0.78 0.78 0.76 0.70 0.65 0.61 0.57 0.53 0.49 0.46 0.43 0.47 0.46 0.49 0.50 0.49 0.50 0.50 0.51 0.49 0.48 0.49 0.49
0.66 0.67 0.69 0.69 0.71 0.73 0.75 0.75 0.72 0.70 0.67 0.64 0.63 0.61 0.58 0.54 0.52 0.50 0.47 0.46 0.45 0.48 0.48 0.48 0.49 0.51 0.52 0.55 0.57 0.53 0.52 0.50
0.61 0.62 0.65 0.68 0.70 0.74 0.73 0.70 0.69 0.68 0.67 0.66 0.62 0.61 0.57 0.54 0.50 0.49 0.46 0.45 0.44 0.46 0.50 0.51 0.51 0.51 0.52 0.51 0.51 0.52 0.52 0.49
0.61 0.63 0.67 0.70 0.69 0.70 0.69 0.69 0.67 0.69 0.69 0.64 0.59 0.57 0.54 0.50 0.46 0.42 0.42 0.44 0.49 0.51 0.51 0.49 0.50 0.52 0.53 0.53 0.50 0.49 0.49 0.49
0.62 0.64 0.65 0.66 0.69 0.68 0.68 0.69 0.67 0.63 0.61 0.58 0.55 0.51 0.45 0.42 0.41 0.43 0.45 0.46 0.44 0.46 0.46 0.48 0.50 0.51 0.52 0.50 0.48 0.46 0.43 0.41
0.64 0.65 0.66 0.68 0.67 0.65 0.64 0.65 0.61 0.59 0.54 0.51 0.48 0.46 0.43 0.43 0.44 0.45 0.47 0.46 0.46 0.45 0.48 0.49 0.49 0.50 0.49 0.46 0.44 0.42 0.38 0.37
0.63 0.66 0.66 0.64 0.66 0.64 0.59 0.55 0.53 0.52 0.50 0.47 0.44 0.43 0.43 0.42 0.43 0.44 0.44 0.45 0.46 0.49 0.48 0.47 0.47 0.47 0.46 0.44 0.43 0.40 0.38 0.36
0.65 0.65 0.64 0.62 0.57 0.52 0.53 0.53 0.54 0.48 0.44 0.41 0.41 0.41 0.43 0.43 0.41 0.40 0.40 0.41 0.42 0.43 0.43 0.42 0.39 0.35 0.34 0.35 0.34 0.34 0.33 0.32
0.62 0.60 0.57 0.51 0.48 0.52 0.54 0.49 0.43 0.42 0.41 0.39 0.37 0.36 0.37 0.37 0.36 0.35 0.34 0.33 0.30 0.28 0.26 0.26 0.26 0.26 0.26 0.26 0.26 0.27 0.27 0.26
0.58 0.53 0.46 0.45 0.49 0.50 0.43 0.40 0.36 0.38 0.36 0.35 0.35 0.35 0.35 0.34 0.33 0.30 0.27 0.25 0.24 0.24 0.23 0.23 0.24 0.24 0.24 0.22 0.22 0.22 0.22 0.22
0.46 0.43 0.42 0.45 0.48 0.44 0.38 0.37 0.35 0.34 0.34 0.33 0.34 0.35 0.34 0.31 0.29 0.25 0.23 0.23 0.24 0.22 0.21 0.22 0.22 0.22 0.21 0.21 0.20 0.20 0.20 0.21
0.45 0.44 0.43 0.43 0.45 0.39 0.38 0.33 0.31 0.32 0.33 0.33 0.35 0.33 0.31 0.30 0.25 0.25 0.24 0.22 0.20 0.20 0.21 0.21 0.21 0.22 0.23 0.23 0.22 0.22 0.22 0.22

GFSFLT1_prec_pwat_015.txt.gz
Precipitable_Water
0.77 0.67 0.67 0.63 0.69 0.79 0.91 1.08 1.05 0.99 0.91 0.86 0.82 0.84 0.84 0.84 0.83 0.83 0.86 0.85 0.85 0.83 0.82 0.81 0.81 0.77 0.74 0.73 0.71 0.71 0.70 0.67
0.65 0.63 0.63 0.64 0.73 0.83 0.93 0.92 0.89 0.84 0.78 0.75 0.75 0.76 0.79 0.81 0.84 0.85 0.85 0.83 0.80 0.78 0.75 0.73 0.73 0.67 0.64 0.64 0.62 0.60 0.61 0.66
0.57 0.59 0.62 0.65 0.69 0.72 0.73 0.75 0.77 0.78 0.77 0.79 0.80 0.80 0.80 0.82 0.84 0.83 0.80 0.78 0.78 0.74 0.73 0.70 0.65 0.60 0.57 0.53 0.51 0.51 0.54 0.59
0.52 0.56 0.62 0.68 0.70 0.71 0.74 0.77 0.80 0.80 0.79 0.79 0.79 0.79 0.78 0.77 0.77 0.78 0.79 0.80 0.76 0.71 0.67 0.63 0.61 0.57 0.52 0.53 0.53 0.51 0.48 0.51
0.56 0.61 0.66 0.71 0.74 0.77 0.79 0.78 0.78 0.79 0.81 0.78 0.77 0.74 0.73 0.79 0.79 0.79 0.78 0.71 0.64 0.62 0.57 0.57 0.57 0.58 0.56 0.58 0.58 0.58 0.56 0.49
0.59 0.63 0.67 0.73 0.78 0.79 0.80 0.80 0.81 0.82 0.83 0.81 0.80 0.79 0.80 0.79 0.74 0.65 0.63 0.60 0.60 0.56 0.53 0.53 0.53 0.54 0.56 0.55 0.56 0.56 0.55 0.52
0.62 0.67 0.71 0.75 0.80 0.83 0.82 0.80 0.79 0.82 0.84 0.83 0.75 0.70 0.66 0.63 0.62 0.60 0.58 0.56 0.51 0.50 0.51 0.53 0.56 0.59 0.60 0.59 0.59 0.54 0.49 0.49
0.65 0.68 0.71 0.75 0.78 0.77 0.77 0.77 0.78 0.79 0.76 0.73 0.71 0.68 0.67 0.63 0.60 0.56 0.51 0.47 0.46 0.48 0.52 0.56 0.58 0.59 0.58 0.57 0.55 0.53 0.49 0.47
0.66 0.68 0.71 0.72 0.72 0.74 0.77 0.77 0.73 0.74 0.75 0.74 0.73 0.71 0.67 0.62 0.57 0.53 0.49 0.48 0.48 0.50 0.51 0.55 0.54 0.56 0.58 0.56 0.56 0.55 0.55 0.50
0.64 0.67 0.70 0.70 0.71 0.72 0.74 0.71 0.68 0.69 0.72 0.74 0.71 0.67 0.63 0.59 0.53 0.50 0.45 0.45 0.45 0.49 0.49 0.50 0.50 0.50 0.50 0.51 0.51 0.50 0.50 0.48
0.65 0.66 0.69 0.70 0.72 0.72 0.74 0.73 0.72 0.73 0.71 0.68 0.65 0.63 0.60 0.51 0.46 0.44 0.43 0.42 0.43 0.42 0.45 0.46 0.48 0.49 0.50 0.50 0.48 0.49 0.49 0.50
0.64 0.66 0.69 0.70 0.74 0.73 0.71 0.69 0.67 0.64 0.62 0.60 0.56 0.53 0.49 0.46 0.43 0.43 0.43 0.43 0.41 0.44 0.44 0.47 0.48 0.47 0.48 0.48 0.49 0.49 0.48 0.46
0.65 0.67 0.71 0.71 0.70 0.68 0.64 0.61 0.57 0.57 0.56 0.51 0.46 0.45 0.45 0.44 0.43 0.43 0.43 0.40 0.44 0.46 0.48 0.47 0.47 0.47 0.48 0.48 0.46 0.44 0.43 0.42
0.66 0.68 0.68 0.67 0.66 0.60 0.53 0.54 0.54 0.52 0.47 0.41 0.40 0.42 0.43 0.39 0.41 0.39 0.38 0.38 0.38 0.39 0.41 0.43 0.43 0.40 0.36 0.32 0.32 0.34 0.34 0.36
0.64 0.63 0.62 0.62 0.56 0.49 0.51 0.52 0.50 0.45 0.41 0.40 0.39 0.39 0.38 0.37 0.39 0.38 0.36 0.35 0.33 0.30 0.29 0.28 0.28 0.27 0.27 0.28 0.28 0.25 0.25 0.26
0.60 0.58 0.54 0.49 0.45 0.47 0.50 0.49 0.42 0.41 0.38 0.37 0.36 0.37 0.36 0.38 0.37 0.34 0.33 0.30 0.28 0.27 0.26 0.26 0.26 0.25 0.25 0.24 0.23 0.20 0.20 0.21
0.58 0.50 0.47 0.43 0.45 0.46 0.48 0.43 0.40 0.38 0.37 0.36 0.36 0.35 0.36 0.36 0.34 0.32 0.27 0.27 0.26 0.26 0.25 0.24 0.25 0.24 0.25 0.23 0.22 0.21 0.20 0.21
0.54 0.48 0.46 0.45 0.43 0.43 0.43 0.41 0.41 0.38 0.37 0.35 0.35 0.37 0.36 0.34 0.32 0.27 0.27 0.27 0.26 0.24 0.24 0.24 0.23 0.24 0.26 0.25 0.25 0.24 0.22 0.22
0.50 0.45 0.40 0.37 0.36 0.38 0.43 0.42 0.41 0.38 0.38 0.38 0.39 0.35 0.35 0.32 0.31 0.27 0.28 0.26 0.25 0.24 0.24 0.24 0.25 0.26 0.28 0.26 0.24 0.23 0.23 0.23

GFSFLT1_prec_pwat_018.txt.gz
Precipitable_Water
0.76 0.84 0.78 0.72 0.76 0.81 0.89 1.11 1.13 1.07 1.01 0.94 0.88 0.86 0.86 0.89 0.87 0.90 0.90 0.89 0.87 0.84 0.80 0.79 0.80 0.75 0.73 0.73 0.71 0.69 0.64 0.62
0.76 0.78 0.79 0.77 0.81 0.87 0.97 0.92 0.91 0.88 0.82 0.78 0.79 0.78 0.81 0.84 0.87 0.90 0.87 0.87 0.84 0.81 0.78 0.75 0.71 0.66 0.66 0.65 0.61 0.55 0.54 0.58
0.68 0.75 0.76 0.72 0.71 0.74 0.78 0.77 0.78 0.80 0.81 0.81 0.80 0.78 0.80 0.83 0.85 0.88 0.85 0.86 0.86 0.82 0.74 0.66 0.64 0.61 0.58 0.57 0.57 0.56 0.58 0.61
0.60 0.65 0.68 0.70 0.69 0.71 0.75 0.77 0.79 0.81 0.79 0.80 0.80 0.79 0.79 0.79 0.81 0.83 0.85 0.83 0.77 0.69 0.65 0.62 0.59 0.57 0.54 0.53 0.50 0.49 0.50 0.57
0.61 0.65 0.68 0.71 0.73 0.76 0.77 0.78 0.79 0.80 0.82 0.79 0.77 0.76 0.75 0.79 0.79 0.76 0.73 0.71 0.69 0.65 0.61 0.56 0.54 0.54 0.52 0.51 0.59 0.57 0.58 0.53
0.63 0.66 0.70 0.74 0.78 0.80 0.83 0.82 0.81 0.82 0.81 0.82 0.80 0.77 0.77 0.74 0.70 0.68 0.67 0.67 0.65 0.60 0.56 0.54 0.53 0.53 0.56 0.63 0.65 0.64 0.63 0.58
0.64 0.68 0.72 0.76 0.82 0.83 0.83 0.79 0.78 0.81 0.80 0.78 0.75 0.71 0.69 0.68 0.68 0.66 0.65 0.63 0.57 0.56 0.54 0.51 0.53 0.59 0.56 0.57 0.56 0.53 0.51 0.50
0.64 0.67 0.70 0.75 0.76 0.77 0.77 0.77 0.75 0.77 0.78 0.79 0.79 0.76 0.73 0.69 0.66 0.61 0.56 0.52 0.50 0.47 0.52 0.54 0.55 0.55 0.51 0.50 0.50 0.50 0.50 0.49
0.64 0.66 0.68 0.70 0.73 0.74 0.76 0.76 0.73 0.72 0.74 0.75 0.77 0.74 0.68 0.63 0.59 0.55 0.49 0.46 0.45 0.46 0.45 0.47 0.48 0.49 0.50 0.50 0.50 0.50 0.49 0.48
0.65 0.69 0.70 0.71 0.71 0.71 0.73 0.74 0.72 0.71 0.69 0.67 0.64 0.63 0.60 0.56 0.50 0.46 0.43 0.43 0.40 0.40 0.43 0.46 0.46 0.48 0.48 0.48 0.46 0.45 0.46 0.48
0.65 0.66 0.69 0.72 0.73 0.74 0.76 0.72 0.68 0.67 0.64 0.61 0.59 0.56 0.52 0.49 0.44 0.42 0.42 0.40 0.38 0.37 0.41 0.46 0.49 0.49 0.49 0.48 0.47 0.46 0.46 0.49
0.63 0.66 0.70 0.70 0.73 0.70 0.72 0.68 0.64 0.59 0.57 0.56 0.52 0.47 0.43 0.42 0.45 0.44 0.41 0.36 0.34 0.35 0.40 0.43 0.43 0.44 0.44 0.42 0.43 0.43 0.41 0.41
0.66 0.67 0.69 0.68 0.68 0.69 0.64 0.59 0.56 0.56 0.55 0.49 0.42 0.39 0.41 0.43 0.42 0.41 0.35 0.34 0.36 0.37 0.37 0.36 0.39 0.39 0.40 0.40 0.35 0.34 0.34 0.34
0.63 0.64 0.62 0.62 0.61 0.60 0.56 0.52 0.53 0.54 0.49 0.40 0.39 0.39 0.40 0.40 0.38 0.35 0.37 0.36 0.34 0.33 0.32 0.29 0.28 0.28 0.27 0.26 0.25 0.27 0.25 0.24
0.61 0.61 0.59 0.57 0.53 0.50 0.47 0.48 0.51 0.48 0.42 0.39 0.36 0.38 0.38 0.37 0.36 0.35 0.37 0.36 0.32 0.29 0.28 0.28 0.27 0.26 0.25 0.26 0.26 0.26 0.24 0.22
0.59 0.57 0.54 0.50 0.47 0.45 0.44 0.43 0.45 0.45 0.43 0.40 0.39 0.39 0.41 0.40 0.39 0.36 0.35 0.33 0.28 0.29 0.28 0.27 0.26 0.26 0.26 0.25 0.24 0.24 0.23 0.22
0.56 0.54 0.51 0.46 0.45 0.43 0.40 0.39 0.43 0.48 0.47 0.44 0.44 0.41 0.42 0.42 0.37 0.34 0.34 0.29 0.29 0.29 0.27 0.26 0.26 0.26 0.27 0.25 0.26 0.25 0.25 0.23
0.50 0.47 0.47 0.44 0.39 0.36 0.33 0.37 0.40 0.43 0.42 0.42 0.43 0.46 0.42 0.41 0.35 0.31 0.32 0.29 0.30 0.29 0.26 0.26 0.25 0.27 0.28 0.28 0.28 0.27 0.25 0.24
0.48 0.47 0.40 0.38 0.35 0.35 0.35 0.33 0.31 0.31 0.34 0.35 0.42 0.41 0.44 0.41 0.37 0.32 0.33 0.30 0.30 0.27 0.26 0.26 0.26 0.26 0.27 0.28 0.27 0.26 0.24 0.23

GFSFLT1_prec_pwat_021.txt.gz
Precipitable_Water
0.76 0.80 0.84 0.89 0.95 0.95 0.99 1.07 1.10 1.02 0.97 0.93 0.93 0.93 0.91 0.92 0.90 0.88 0.88 0.88 0.86 0.84 0.81 0.82 0.79 0.72 0.67 0.62 0.59 0.59 0.57 0.54
0.77 0.82 0.86 0.91 0.96 0.91 0.86 0.80 0.84 0.84 0.82 0.81 0.80 0.81 0.85 0.84 0.88 0.86 0.85 0.86 0.85 0.82 0.80 0.74 0.69 0.63 0.61 0.60 0.56 0.51 0.48 0.49
0.73 0.79 0.82 0.84 0.84 0.82 0.81 0.80 0.80 0.79 0.80 0.81 0.82 0.80 0.80 0.82 0.83 0.85 0.86 0.84 0.82 0.78 0.70 0.66 0.63 0.60 0.58 0.55 0.53 0.48 0.46 0.54
0.66 0.68 0.71 0.73 0.72 0.74 0.72 0.75 0.76 0.77 0.79 0.80 0.79 0.77 0.77 0.77 0.80 0.83 0.84 0.80 0.73 0.68 0.66 0.62 0.60 0.58 0.53 0.52 0.51 0.50 0.50 0.56
0.64 0.68 0.67 0.69 0.72 0.75 0.75 0.77 0.78 0.81 0.83 0.78 0.74 0.72 0.70 0.75 0.76 0.75 0.71 0.69 0.67 0.66 0.62 0.59 0.53 0.50 0.48 0.51 0.58 0.56 0.54 0.49
0.62 0.65 0.67 0.73 0.76 0.77 0.79 0.81 0.84 0.81 0.78 0.76 0.73 0.70 0.71 0.71 0.69 0.68 0.67 0.66 0.63 0.57 0.51 0.52 0.52 0.54 0.53 0.52 0.52 0.51 0.51 0.48
0.62 0.65 0.69 0.71 0.76 0.78 0.80 0.78 0.77 0.79 0.80 0.79 0.76 0.73 0.70 0.68 0.66 0.63 0.58 0.55 0.50 0.47 0.49 0.47 0.46 0.44 0.42 0.42 0.44 0.44 0.42 0.47
0.64 0.65 0.69 0.73 0.74 0.74 0.75 0.75 0.72 0.76 0.75 0.75 0.73 0.71 0.68 0.64 0.61 0.56 0.50 0.43 0.41 0.40 0.38 0.39 0.40 0.41 0.42 0.42 0.45 0.45 0.47 0.43
0.66 0.65 0.65 0.69 0.72 0.74 0.76 0.75 0.71 0.72 0.70 0.68 0.67 0.65 0.61 0.58 0.56 0.51 0.42 0.39 0.40 0.41 0.38 0.39 0.42 0.44 0.46 0.47 0.45 0.44 0.44 0.42
0.65 0.70 0.70 0.72 0.73 0.74 0.75 0.72 0.71 0.69 0.68 0.66 0.64 0.61 0.56 0.53 0.48 0.42 0.39 0.41 0.41 0.38 0.33 0.37 0.41 0.43 0.44 0.43 0.40 0.40 0.43 0.43
0.68 0.70 0.73 0.73 0.73 0.74 0.72 0.70 0.67 0.66 0.65 0.63 0.59 0.53 0.48 0.42 0.40 0.39 0.40 0.40 0.40 0.32 0.32 0.36 0.38 0.39 0.39 0.40 0.40 0.40 0.39 0.40
0.69 0.71 0.72 0.71 0.70 0.67 0.64 0.62 0.60 0.58 0.57 0.56 0.51 0.43 0.37 0.39 0.38 0.38 0.38 0.37 0.31 0.33 0.33 0.31 0.31 0.32 0.32 0.33 0.32 0.31 0.30 0.33
0.69 0.69 0.67 0.63 0.63 0.60 0.59 0.56 0.55 0.55 0.52 0.48 0.41 0.41 0.41 0.42 0.39 0.37 0.38 0.36 0.33 0.31 0.29 0.28 0.28 0.28 0.28 0.28 0.27 0.26 0.24 0.26
0.64 0.64 0.62 0.60 0.56 0.50 0.49 0.48 0.47 0.46 0.43 0.41 0.42 0.43 0.45 0.43 0.41 0.41 0.42 0.41 0.33 0.29 0.26 0.25 0.27 0.27 0.26 0.26 0.26 0.25 0.25 0.26
0.61 0.63 0.61 0.55 0.50 0.47 0.45 0.44 0.43 0.40 0.40 0.42 0.42 0.44 0.46 0.44 0.45 0.44 0.47 0.43 0.34 0.30 0.27 0.26 0.28 0.25 0.25 0.24 0.24 0.25 0.25 0.24
0.58 0.56 0.53 0.49 0.46 0.44 0.41 0.36 0.36 0.37 0.39 0.40 0.40 0.42 0.45 0.44 0.46 0.48 0.45 0.41 0.35 0.30 0.28 0.28 0.28 0.26 0.24 0.24 0.25 0.26 0.25 0.24
0.54 0.48 0.46 0.45 0.41 0.38 0.36 0.35 0.34 0.35 0.34 0.34 0.37 0.41 0.45 0.46 0.46 0.48 0.49 0.41 0.35 0.31 0.29 0.28 0.27 0.25 0.27 0.28 0.28 0.26 0.24 0.23
0.46 0.45 0.45 0.42 0.36 0.36 0.34 0.34 0.34 0.33 0.32 0.33 0.34 0.36 0.38 0.41 0.44 0.48 0.44 0.38 0.33 0.30 0.30 0.31 0.26 0.27 0.30 0.29 0.27 0.26 0.26 0.25
0.45 0.44 0.39 0.35 0.35 0.34 0.33 0.32 0.31 0.30 0.29 0.28 0.30 0.32 0.34 0.36 0.37 0.44 0.43 0.38 0.34 0.30 0.32 0.30 0.28 0.30 0.28 0.26 0.28 0.29 0.28 0.28

GFSFLT1_prec_pwat_024.txt.gz
Precipitable_Water
0.84 0.89 0.95 1.03 1.13 1.23 1.27 1.24 1.24 1.16 0.98 0.97 0.99 0.97 0.94 0.94 0.93 0.92 0.89 0.87 0.85 0.84 0.81 0.82 0.80 0.75 0.67 0.63 0.58 0.56 0.51 0.47
0.84 0.91 0.98 1.05 1.12 1.09 1.10 1.09 1.01 0.96 0.92 0.87 0.87 0.86 0.87 0.89 0.89 0.87 0.84 0.83 0.83 0.81 0.81 0.78 0.72 0.64 0.61 0.58 0.56 0.50 0.47 0.50
0.77 0.83 0.88 0.90 0.94 0.96 0.92 0.89 0.88 0.87 0.84 0.85 0.85 0.85 0.86 0.86 0.84 0.82 0.82 0.82 0.82 0.78 0.71 0.66 0.64 0.59 0.56 0.53 0.49 0.44 0.46 0.53
0.73 0.76 0.79 0.85 0.82 0.80 0.79 0.78 0.77 0.78 0.79 0.80 0.81 0.81 0.79 0.77 0.78 0.78 0.77 0.75 0.72 0.69 0.67 0.65 0.60 0.55 0.48 0.49 0.49 0.47 0.44 0.48
0.71 0.69 0.69 0.69 0.70 0.72 0.73 0.76 0.77 0.78 0.80 0.77 0.72 0.68 0.64 0.68 0.69 0.69 0.69 0.70 0.66 0.61 0.56 0.49 0.46 0.45 0.43 0.45 0.49 0.44 0.43 0.37
0.69 0.68 0.69 0.68 0.67 0.69 0.72 0.72 0.72 0.73 0.71 0.72 0.72 0.69 0.70 0.69 0.69 0.67 0.67 0.64 0.58 0.51 0.46 0.43 0.41 0.40 0.39 0.40 0.38 0.37 0.41 0.40
0.70 0.68 0.67 0.67 0.70 0.70 0.71 0.71 0.73 0.76 0.75 0.74 0.71 0.68 0.68 0.66 0.66 0.63 0.57 0.55 0.49 0.43 0.41 0.41 0.39 0.38 0.38 0.39 0.41 0.41 0.39 0.38
0.69 0.67 0.70 0.71 0.71 0.74 0.75 0.75 0.75 0.78 0.75 0.72 0.71 0.70 0.68 0.65 0.61 0.56 0.49 0.40 0.37 0.38 0.38 0.38 0.37 0.36 0.37 0.38 0.38 0.37 0.36 0.36
0.73 0.73 0.74 0.75 0.76 0.78 0.78 0.76 0.74 0.73 0.70 0.68 0.67 0.65 0.63 0.59 0.53 0.45 0.37 0.37 0.37 0.38 0.36 0.33 0.33 0.35 0.35 0.36 0.36 0.35 0.36 0.37
0.68 0.71 0.75 0.77 0.78 0.77 0.75 0.71 0.70 0.68 0.66 0.64 0.62 0.61 0.57 0.51 0.45 0.40 0.39 0.40 0.40 0.39 0.36 0.32 0.33 0.34 0.33 0.34 0.31 0.31 0.32 0.32
0.70 0.74 0.75 0.77 0.78 0.77 0.70 0.67 0.62 0.60 0.59 0.58 0.56 0.52 0.46 0.42 0.42 0.42 0.45 0.43 0.42 0.40 0.37 0.34 0.33 0.32 0.31 0.31 0.30 0.31 0.31 0.31
0.73 0.74 0.76 0.76 0.72 0.67 0.64 0.61 0.56 0.53 0.51 0.50 0.48 0.44 0.39 0.42 0.41 0.41 0.43 0.44 0.44 0.43 0.42 0.37 0.31 0.29 0.28 0.27 0.27 0.27 0.26 0.25
0.71 0.72 0.71 0.66 0.62 0.59 0.56 0.51 0.48 0.47 0.47 0.44 0.41 0.40 0.40 0.40 0.42 0.41 0.42 0.42 0.44 0.45 0.46 0.35 0.31 0.30 0.29 0.27 0.24 0.23 0.22 0.22
0.68 0.68 0.65 0.61 0.57 0.51 0.48 0.47 0.45 0.44 0.40 0.38 0.39 0.39 0.39 0.42 0.43 0.44 0.44 0.48 0.47 0.50 0.40 0.35 0.31 0.30 0.29 0.26 0.24 0.22 0.22 0.23
0.64 0.60 0.59 0.56 0.50 0.47 0.45 0.43 0.40 0.36 0.34 0.33 0.34 0.36 0.39 0.43 0.42 0.44 0.44 0.46 0.49 0.46 0.38 0.34 0.33 0.32 0.29 0.26 0.24 0.24 0.25 0.25
0.61 0.57 0.51 0.48 0.45 0.42 0.40 0.35 0.33 0.34 0.33 0.34 0.36 0.37 0.36 0.34 0.35 0.38 0.40 0.40 0.41 0.46 0.38 0.34 0.33 0.31 0.29 0.27 0.25 0.25 0.25 0.23
0.53 0.50 0.48 0.45 0.45 0.37 0.33 0.32 0.33 0.33 0.32 0.33 0.34 0.32 0.30 0.30 0.32 0.32 0.34 0.38 0.39 0.37 0.38 0.34 0.32 0.31 0.31 0.28 0.27 0.25 0.24 0.23
0.50 0.47 0.43 0.42 0.36 0.33 0.31 0.31 0.31 0.29 0.30 0.30 0.28 0.28 0.28 0.29 0.30 0.33 0.36 0.37 0.38 0.41 0.35 0.34 0.32 0.30 0.28 0.26 0.25 0.25 0.24 0.25
0.45 0.41 0.38 0.35 0.32 0.30 0.30 0.29 0.27 0.28 0.28 0.27 0.29 0.30 0.29 0.30 0.32 0.33 0.36 0.39 0.36 0.33 0.33 0.30 0.28 0.25 0.25 0.25 0.25 0.24 0.24 0.25

GFSFLT1_prec_pwat_027.txt.gz
Precipitable_Water
0.84 0.92 1.01 1.09 1.19 1.28 1.37 1.34 1.32 1.24 1.19 1.05 1.00 0.94 0.93 0.95 0.93 0.91 0.91 0.87 0.85 0.83 0.82 0.80 0.76 0.71 0.68 0.63 0.58 0.54 0.51 0.50
0.87 0.94 1.04 1.11 1.17 1.19 1.22 1.24 1.20 1.09 1.01 0.96 0.88 0.88 0.89 0.88 0.88 0.88 0.86 0.84 0.82 0.80 0.76 0.73 0.72 0.66 0.62 0.61 0.57 0.50 0.45 0.47
0.83 0.93 1.04 1.09 1.10 1.07 1.01 1.00 0.99 0.93 0.88 0.88 0.86 0.84 0.84 0.84 0.83 0.81 0.81 0.79 0.76 0.74 0.71 0.68 0.61 0.53 0.47 0.45 0.43 0.40 0.40 0.43
0.75 0.85 0.91 0.92 0.87 0.84 0.79 0.77 0.76 0.76 0.77 0.79 0.81 0.83 0.82 0.77 0.74 0.72 0.73 0.72 0.70 0.66 0.61 0.53 0.46 0.42 0.37 0.37 0.38 0.36 0.31 0.35
0.82 0.82 0.78 0.76 0.74 0.75 0.76 0.76 0.75 0.75 0.76 0.73 0.70 0.67 0.65 0.70 0.71 0.72 0.71 0.71 0.68 0.60 0.53 0.46 0.41 0.40 0.36 0.36 0.37 0.35 0.34 0.30
0.73 0.73 0.75 0.76 0.74 0.72 0.73 0.75 0.75 0.76 0.77 0.77 0.74 0.71 0.71 0.71 0.70 0.68 0.66 0.62 0.56 0.48 0.44 0.40 0.37 0.35 0.33 0.32 0.32 0.32 0.33 0.31
0.75 0.78 0.80 0.77 0.78 0.77 0.76 0.78 0.78 0.80 0.78 0.76 0.73 0.68 0.65 0.64 0.63 0.59 0.52 0.49 0.45 0.41 0.38 0.37 0.36 0.34 0.32 0.33 0.33 0.33 0.31 0.30
0.77 0.80 0.85 0.83 0.81 0.80 0.81 0.80 0.79 0.79 0.74 0.71 0.68 0.66 0.64 0.60 0.56 0.50 0.45 0.39 0.37 0.40 0.41 0.40 0.39 0.37 0.36 0.35 0.34 0.33 0.32 0.30
0.82 0.80 0.78 0.75 0.77 0.79 0.79 0.79 0.75 0.72 0.69 0.67 0.65 0.61 0.57 0.53 0.50 0.45 0.39 0.36 0.37 0.38 0.39 0.42 0.43 0.42 0.40 0.37 0.36 0.34 0.33 0.31
0.67 0.70 0.73 0.74 0.76 0.76 0.76 0.74 0.69 0.69 0.65 0.61 0.57 0.54 0.51 0.47 0.44 0.41 0.39 0.40 0.41 0.42 0.41 0.42 0.43 0.45 0.45 0.40 0.37 0.34 0.34 0.31
0.66 0.70 0.74 0.75 0.75 0.77 0.73 0.69 0.66 0.63 0.57 0.52 0.49 0.47 0.45 0.42 0.41 0.40 0.42 0.43 0.44 0.45 0.44 0.44 0.46 0.43 0.39 0.37 0.32 0.32 0.29 0.28
0.68 0.70 0.73 0.74 0.75 0.69 0.65 0.62 0.58 0.52 0.50 0.48 0.43 0.39 0.40 0.41 0.41 0.42 0.44 0.46 0.48 0.46 0.44 0.44 0.46 0.40 0.37 0.33 0.31 0.29 0.26 0.24
0.68 0.70 0.72 0.69 0.68 0.63 0.59 0.55 0.51 0.49 0.47 0.42 0.39 0.39 0.38 0.37 0.37 0.40 0.45 0.46 0.45 0.42 0.41 0.43 0.46 0.38 0.35 0.33 0.30 0.29 0.27 0.24
0.65 0.67 0.67 0.63 0.60 0.59 0.53 0.50 0.46 0.42 0.39 0.37 0.35 0.34 0.34 0.33 0.33 0.31 0.31 0.32 0.34 0.35 0.37 0.41 0.38 0.34 0.35 0.33 0.31 0.28 0.26 0.26
0.63 0.62 0.60 0.60 0.60 0.52 0.47 0.43 0.40 0.38 0.36 0.34 0.33 0.34 0.34 0.31 0.31 0.30 0.29 0.30 0.33 0.37 0.40 0.36 0.36 0.37 0.35 0.33 0.31 0.29 0.26 0.27
0.59 0.57 0.60 0.56 0.52 0.48 0.43 0.39 0.37 0.35 0.33 0.32 0.32 0.32 0.30 0.29 0.29 0.29 0.28 0.33 0.37 0.39 0.40 0.39 0.38 0.35 0.33 0.32 0.30 0.27 0.25 0.23
0.58 0.56 0.55 0.53 0.46 0.41 0.38 0.35 0.33 0.32 0.31 0.29 0.29 0.28 0.29 0.30 0.30 0.28 0.31 0.35 0.36 0.37 0.39 0.37 0.32 0.31 0.31 0.29 0.28 0.25 0.24 0.23
0.55 0.52 0.48 0.45 0.42 0.38 0.33 0.32 0.32 0.30 0.29 0.29 0.29 0.31 0.30 0.29 0.29 0.30 0.31 0.33 0.36 0.36 0.34 0.30 0.27 0.27 0.27 0.27 0.26 0.24 0.22 0.21
0.51 0.47 0.45 0.42 0.38 0.34 0.32 0.31 0.29 0.29 0.28 0.29 0.31 0.31 0.28 0.27 0.29 0.30 0.32 0.34 0.34 0.32 0.30 0.27 0.26 0.25 0.26 0.24 0.24 0.20 0.19 0.19

GFSFLT1_prec_pwat_030.txt.gz
Precipitable_Water
0.85 0.95 1.00 1.05 1.10 1.17 1.28 1.35 1.40 1.31 1.31 1.22 1.08 1.01 0.96 0.95 0.93 0.92 0.89 0.86 0.85 0.83 0.79 0.77 0.74 0.69 0.64 0.59 0.52 0.49 0.46 0.43
0.88 0.98 1.05 1.10 1.19 1.24 1.31 1.32 1.28 1.23 1.10 0.99 0.95 0.89 0.87 0.84 0.84 0.84 0.81 0.78 0.76 0.74 0.70 0.65 0.60 0.52 0.47 0.45 0.41 0.37 0.35 0.37
0.85 0.93 1.03 1.13 1.21 1.23 1.28 1.18 1.06 0.94 0.85 0.80 0.78 0.76 0.75 0.76 0.76 0.75 0.74 0.75 0.73 0.70 0.65 0.57 0.50 0.42 0.39 0.38 0.36 0.31 0.31 0.33
0.80 0.87 0.94 1.03 1.00 0.93 0.85 0.81 0.78 0.75 0.72 0.72 0.72 0.72 0.71 0.68 0.68 0.70 0.71 0.71 0.66 0.59 0.51 0.45 0.43 0.41 0.34 0.32 0.30 0.28 0.24 0.27
0.81 0.86 0.83 0.78 0.75 0.75 0.75 0.75 0.74 0.76 0.77 0.75 0.71 0.67 0.66 0.69 0.69 0.69 0.68 0.61 0.57 0.52 0.49 0.45 0.39 0.36 0.32 0.32 0.32 0.30 0.31 0.26
0.75 0.75 0.76 0.77 0.77 0.78 0.80 0.82 0.83 0.83 0.83 0.81 0.74 0.70 0.71 0.70 0.69 0.65 0.60 0.56 0.53 0.46 0.40 0.38 0.37 0.36 0.37 0.36 0.35 0.33 0.32 0.29
0.77 0.77 0.78 0.80 0.86 0.90 0.91 0.87 0.86 0.86 0.83 0.78 0.74 0.70 0.67 0.63 0.60 0.54 0.51 0.50 0.44 0.38 0.38 0.38 0.38 0.37 0.37 0.38 0.37 0.35 0.32 0.32
0.71 0.74 0.79 0.86 0.86 0.84 0.84 0.85 0.81 0.82 0.78 0.74 0.72 0.68 0.62 0.55 0.50 0.47 0.43 0.38 0.37 0.37 0.38 0.39 0.41 0.41 0.40 0.39 0.41 0.39 0.36 0.33
0.75 0.78 0.80 0.77 0.78 0.81 0.81 0.80 0.80 0.78 0.73 0.69 0.66 0.58 0.53 0.50 0.45 0.42 0.40 0.38 0.38 0.40 0.41 0.43 0.43 0.42 0.43 0.44 0.43 0.41 0.36 0.33
0.71 0.72 0.73 0.75 0.75 0.76 0.78 0.78 0.77 0.74 0.68 0.60 0.55 0.54 0.52 0.47 0.45 0.43 0.42 0.42 0.43 0.45 0.45 0.44 0.44 0.47 0.50 0.46 0.45 0.39 0.36 0.34
0.66 0.69 0.70 0.72 0.74 0.74 0.77 0.75 0.70 0.64 0.60 0.57 0.54 0.50 0.46 0.45 0.44 0.43 0.41 0.42 0.44 0.46 0.46 0.42 0.40 0.40 0.42 0.42 0.39 0.36 0.34 0.32
0.64 0.67 0.69 0.71 0.71 0.71 0.70 0.67 0.62 0.61 0.56 0.52 0.46 0.43 0.42 0.41 0.38 0.36 0.33 0.33 0.32 0.30 0.33 0.35 0.36 0.38 0.41 0.37 0.33 0.32 0.31 0.30
0.65 0.67 0.68 0.68 0.68 0.67 0.61 0.65 0.62 0.52 0.49 0.44 0.40 0.40 0.38 0.36 0.34 0.33 0.33 0.30 0.30 0.29 0.33 0.37 0.39 0.40 0.37 0.32 0.33 0.34 0.31 0.30
0.64 0.65 0.66 0.66 0.62 0.60 0.66 0.56 0.50 0.46 0.42 0.40 0.39 0.37 0.35 0.31 0.29 0.28 0.28 0.28 0.28 0.31 0.36 0.39 0.37 0.35 0.35 0.36 0.36 0.33 0.30 0.29
0.62 0.63 0.62 0.59 0.60 0.62 0.51 0.49 0.46 0.44 0.41 0.38 0.36 0.34 0.30 0.28 0.28 0.29 0.28 0.28 0.29 0.34 0.36 0.36 0.38 0.36 0.36 0.34 0.30 0.29 0.27 0.26
0.60 0.58 0.56 0.60 0.59 0.53 0.48 0.45 0.42 0.39 0.36 0.35 0.33 0.31 0.30 0.30 0.30 0.29 0.29 0.30 0.34 0.35 0.36 0.36 0.37 0.32 0.29 0.27 0.27 0.26 0.24 0.23
0.57 0.56 0.61 0.58 0.51 0.48 0.45 0.41 0.37 0.36 0.33 0.32 0.31 0.30 0.31 0.30 0.28 0.29 0.30 0.31 0.33 0.36 0.35 0.33 0.31 0.27 0.27 0.27 0.26 0.24 0.22 0.19
0.56 0.58 0.53 0.49 0.47 0.45 0.40 0.37 0.36 0.33 0.31 0.30 0.30 0.31 0.30 0.27 0.29 0.31 0.29 0.31 0.33 0.33 0.32 0.31 0.28 0.26 0.26 0.25 0.24 0.21 0.18 0.17
0.56 0.51 0.49 0.48 0.46 0.42 0.39 0.36 0.33 0.29 0.28 0.29 0.30 0.29 0.26 0.28 0.29 0.30 0.32 0.33 0.32 0.33 0.31 0.29 0.25 0.24 0.23 0.22 0.22 0.20 0.18 0.17

GFSFLT1_prec_pwat_033.txt.gz
Precipitable_Water
0.82 0.92 0.98 1.03 1.11 1.17 1.23 1.30 1.35 1.35 1.25 1.29 1.16 1.05 1.00 1.00 0.98 0.92 0.86 0.83 0.80 0.77 0.75 0.71 0.65 0.58 0.52 0.48 0.44 0.43 0.43 0.39
0.88 0.96 1.03 1.07 1.15 1.19 1.26 1.28 1.37 1.31 1.17 0.98 0.90 0.90 0.84 0.78 0.76 0.76 0.75 0.74 0.74 0.71 0.65 0.57 0.53 0.47 0.45 0.43 0.38 0.33 0.29 0.30
0.86 0.95 1.03 1.10 1.16 1.24 1.35 1.27 1.09 0.98 0.89 0.83 0.78 0.73 0.73 0.73 0.73 0.72 0.73 0.72 0.66 0.60 0.54 0.51 0.49 0.43 0.37 0.33 0.30 0.27 0.29 0.32
0.84 0.92 0.95 1.02 1.07 1.08 1.03 0.92 0.83 0.81 0.80 0.80 0.79 0.80 0.75 0.71 0.71 0.70 0.72 0.66 0.61 0.56 0.51 0.45 0.40 0.35 0.31 0.31 0.31 0.29 0.26 0.29
0.80 0.85 0.85 0.83 0.84 0.86 0.84 0.80 0.81 0.86 0.88 0.84 0.80 0.74 0.71 0.73 0.74 0.72 0.66 0.62 0.57 0.53 0.47 0.41 0.38 0.37 0.34 0.34 0.35 0.33 0.32 0.28
0.77 0.77 0.75 0.77 0.79 0.81 0.85 0.87 0.88 0.89 0.88 0.86 0.80 0.75 0.74 0.73 0.70 0.63 0.58 0.56 0.54 0.47 0.43 0.41 0.39 0.39 0.39 0.38 0.40 0.38 0.38 0.34
0.70 0.73 0.75 0.75 0.82 0.84 0.87 0.85 0.86 0.87 0.85 0.84 0.80 0.75 0.70 0.63 0.57 0.53 0.50 0.46 0.44 0.44 0.44 0.43 0.43 0.43 0.44 0.42 0.42 0.42 0.42 0.37
0.68 0.69 0.73 0.78 0.81 0.82 0.80 0.81 0.81 0.83 0.82 0.81 0.77 0.69 0.62 0.55 0.51 0.47 0.46 0.45 0.44 0.44 0.46 0.46 0.47 0.47 0.45 0.44 0.41 0.45 0.45 0.37
0.67 0.72 0.75 0.76 0.77 0.76 0.78 0.79 0.79 0.80 0.80 0.74 0.67 0.63 0.58 0.54 0.52 0.51 0.49 0.47 0.46 0.46 0.45 0.46 0.45 0.44 0.41 0.44 0.42 0.43 0.42 0.40
0.69 0.72 0.74 0.74 0.74 0.76 0.77 0.76 0.75 0.77 0.72 0.65 0.64 0.61 0.57 0.53 0.51 0.49 0.46 0.43 0.38 0.36 0.35 0.31 0.34 0.39 0.38 0.42 0.38 0.38 0.40 0.38
0.68 0.69 0.71 0.74 0.75 0.74 0.75 0.74 0.72 0.69 0.67 0.68 0.61 0.55 0.52 0.48 0.44 0.40 0.36 0.33 0.32 0.31 0.29 0.29 0.32 0.37 0.41 0.42 0.38 0.38 0.37 0.34
0.63 0.67 0.71 0.72 0.71 0.70 0.70 0.71 0.71 0.65 0.67 0.58 0.52 0.48 0.45 0.41 0.38 0.36 0.31 0.30 0.30 0.29 0.30 0.32 0.35 0.38 0.42 0.43 0.38 0.35 0.33 0.33
0.62 0.66 0.69 0.69 0.68 0.69 0.72 0.65 0.64 0.64 0.54 0.49 0.46 0.43 0.40 0.37 0.33 0.30 0.32 0.31 0.30 0.30 0.31 0.32 0.36 0.39 0.41 0.38 0.34 0.34 0.32 0.31
0.62 0.65 0.66 0.66 0.67 0.67 0.62 0.65 0.60 0.51 0.47 0.44 0.41 0.39 0.37 0.32 0.32 0.33 0.33 0.30 0.30 0.32 0.34 0.36 0.36 0.35 0.36 0.36 0.34 0.31 0.29 0.27
0.61 0.63 0.64 0.65 0.64 0.62 0.63 0.58 0.51 0.47 0.43 0.41 0.38 0.35 0.33 0.33 0.34 0.33 0.30 0.31 0.32 0.33 0.35 0.36 0.37 0.37 0.35 0.33 0.29 0.25 0.26 0.26
0.59 0.60 0.62 0.62 0.62 0.64 0.56 0.49 0.46 0.43 0.41 0.38 0.35 0.35 0.35 0.35 0.33 0.29 0.30 0.31 0.32 0.33 0.34 0.36 0.34 0.32 0.31 0.30 0.26 0.25 0.23 0.21
0.57 0.59 0.59 0.59 0.62 0.50 0.49 0.46 0.43 0.42 0.38 0.33 0.35 0.34 0.35 0.33 0.29 0.29 0.30 0.31 0.32 0.33 0.33 0.31 0.30 0.31 0.31 0.25 0.24 0.23 0.20 0.18
0.56 0.57 0.58 0.55 0.50 0.50 0.47 0.45 0.43 0.38 0.33 0.33 0.33 0.33 0.31 0.28 0.28 0.29 0.29 0.30 0.32 0.32 0.32 0.30 0.29 0.28 0.25 0.23 0.23 0.21 0.18 0.17
0.56 0.58 0.54 0.54 0.51 0.49 0.47 0.45 0.39 0.33 0.32 0.32 0.32 0.30 0.28 0.28 0.27 0.27 0.27 0.30 0.32 0.32 0.30 0.29 0.27 0.25 0.24 0.22 0.20 0.19 0.18 0.17

GFSFLT1_prec_pwat_036.txt.gz
Precipitable_Water
0.81 0.90 0.94 1.00 1.14 1.22 1.24 1.32 1.35 1.33 1.26 1.25 1.18 1.15 1.07 1.02 0.95 0.90 0.85 0.82 0.80 0.77 0.72 0.68 0.62 0.56 0.51 0.48 0.44 0.40 0.35 0.37
0.87 0.94 1.01 1.07 1.15 1.17 1.21 1.24 1.29 1.36 1.08 1.10 1.03 0.89 0.86 0.83 0.80 0.80 0.79 0.78 0.74 0.68 0.63 0.60 0.55 0.51 0.45 0.40 0.34 0.32 0.32 0.37
0.82 0.93 1.01 1.07 1.11 1.20 1.24 1.23 1.17 1.09 1.01 0.90 0.87 0.84 0.82 0.80 0.79 0.81 0.82 0.77 0.71 0.64 0.60 0.56 0.52 0.44 0.42 0.41 0.39 0.34 0.31 0.36
0.82 0.92 1.02 1.09 1.12 1.15 1.11 1.07 1.00 0.91 0.89 0.90 0.87 0.86 0.82 0.77 0.78 0.79 0.80 0.74 0.69 0.64 0.58 0.50 0.45 0.43 0.39 0.41 0.40 0.37 0.32 0.32
0.85 0.86 0.95 1.01 0.99 1.01 0.99 0.96 0.93 0.92 0.91 0.85 0.82 0.80 0.75 0.77 0.79 0.80 0.73 0.70 0.64 0.55 0.48 0.46 0.45 0.45 0.43 0.42 0.40 0.40 0.38 0.33
0.77 0.82 0.85 0.88 0.93 0.96 0.94 0.90 0.90 0.89 0.88 0.87 0.85 0.81 0.82 0.80 0.77 0.71 0.67 0.63 0.56 0.50 0.48 0.48 0.47 0.47 0.47 0.47 0.44 0.43 0.42 0.37
0.77 0.76 0.75 0.76 0.82 0.86 0.87 0.85 0.84 0.86 0.87 0.87 0.85 0.80 0.76 0.70 0.66 0.61 0.56 0.55 0.53 0.53 0.55 0.52 0.51 0.50 0.50 0.50 0.48 0.45 0.45 0.45
0.69 0.68 0.69 0.74 0.78 0.82 0.84 0.82 0.81 0.86 0.85 0.83 0.81 0.75 0.68 0.65 0.64 0.55 0.51 0.50 0.53 0.52 0.53 0.49 0.48 0.47 0.46 0.45 0.49 0.46 0.47 0.44
0.66 0.69 0.71 0.74 0.78 0.81 0.80 0.80 0.79 0.80 0.79 0.77 0.75 0.70 0.68 0.63 0.57 0.54 0.53 0.51 0.49 0.46 0.42 0.39 0.38 0.38 0.41 0.43 0.46 0.46 0.45 0.40
0.66 0.70 0.75 0.76 0.77 0.79 0.80 0.79 0.78 0.76 0.73 0.75 0.71 0.68 0.63 0.55 0.53 0.50 0.47 0.43 0.40 0.36 0.36 0.34 0.34 0.36 0.39 0.41 0.44 0.43 0.41 0.37
0.67 0.71 0.75 0.76 0.77 0.79 0.82 0.80 0.74 0.74 0.77 0.74 0.67 0.64 0.56 0.50 0.47 0.44 0.41 0.38 0.34 0.33 0.32 0.32 0.33 0.35 0.38 0.41 0.40 0.42 0.42 0.36
0.67 0.72 0.73 0.74 0.76 0.78 0.77 0.73 0.73 0.73 0.68 0.66 0.64 0.55 0.48 0.45 0.43 0.40 0.36 0.34 0.33 0.32 0.33 0.33 0.34 0.36 0.39 0.40 0.39 0.43 0.37 0.34
0.67 0.69 0.69 0.70 0.72 0.72 0.71 0.69 0.68 0.69 0.68 0.62 0.53 0.47 0.44 0.42 0.38 0.35 0.35 0.35 0.34 0.34 0.36 0.36 0.36 0.37 0.38 0.35 0.34 0.36 0.35 0.33
0.62 0.65 0.65 0.66 0.68 0.70 0.65 0.67 0.71 0.64 0.59 0.51 0.47 0.45 0.42 0.37 0.36 0.36 0.37 0.34 0.34 0.36 0.35 0.35 0.35 0.35 0.36 0.37 0.36 0.34 0.32 0.27
0.59 0.61 0.62 0.64 0.66 0.64 0.65 0.71 0.63 0.56 0.49 0.45 0.44 0.42 0.37 0.38 0.38 0.38 0.35 0.35 0.33 0.33 0.34 0.33 0.34 0.34 0.34 0.32 0.31 0.31 0.28 0.25
0.56 0.59 0.59 0.61 0.61 0.62 0.66 0.60 0.55 0.50 0.46 0.44 0.40 0.39 0.39 0.39 0.38 0.35 0.34 0.34 0.33 0.34 0.33 0.33 0.33 0.31 0.29 0.30 0.29 0.25 0.24 0.21
0.54 0.56 0.57 0.58 0.58 0.60 0.58 0.52 0.50 0.48 0.46 0.40 0.38 0.39 0.37 0.37 0.34 0.32 0.32 0.33 0.34 0.34 0.33 0.32 0.31 0.29 0.29 0.26 0.24 0.23 0.21 0.20
0.49 0.53 0.56 0.58 0.58 0.56 0.53 0.50 0.49 0.47 0.41 0.37 0.38 0.36 0.34 0.33 0.31 0.31 0.30 0.30 0.32 0.33 0.33 0.32 0.30 0.31 0.27 0.25 0.23 0.21 0.20 0.19
0.51 0.54 0.57 0.58 0.54 0.55 0.53 0.48 0.48 0.43 0.37 0.36 0.35 0.34 0.32 0.31 0.31 0.29 0.29 0.29 0.31 0.32 0.32 0.31 0.30 0.29 0.26 0.24 0.22 0.21 0.21 0.20

GFSFLT1_prec_pwat_039.txt.gz
Precipitable_Water
0.73 0.85 0.89 0.92 1.12 1.23 1.23 1.24 1.26 1.25 1.25 1.26 1.23 1.14 1.14 1.15 1.08 0.97 0.88 0.85 0.83 0.78 0.73 0.71 0.67 0.62 0.57 0.52 0.46 0.42 0.40 0.39
0.84 0.89 0.94 0.99 1.17 1.19 1.19 1.20 1.23 1.28 1.20 1.04 0.92 1.02 1.04 0.94 0.85 0.83 0.83 0.83 0.78 0.74 0.70 0.67 0.63 0.54 0.52 0.51 0.48 0.43 0.40 0.38
0.85 0.93 0.98 1.03 1.13 1.16 1.20 1.23 1.22 1.18 0.98 1.00 1.01 0.92 0.86 0.85 0.83 0.84 0.85 0.80 0.77 0.70 0.70 0.65 0.60 0.51 0.45 0.45 0.46 0.43 0.42 0.42
0.82 0.92 0.99 1.05 1.09 1.15 1.24 1.21 1.11 1.05 1.02 0.95 0.93 0.89 0.85 0.80 0.81 0.83 0.83 0.79 0.74 0.70 0.67 0.60 0.53 0.49 0.46 0.48 0.48 0.46 0.41 0.43
0.85 0.92 0.98 1.03 1.11 1.21 1.10 1.05 1.04 1.02 0.92 0.89 0.84 0.79 0.77 0.81 0.82 0.84 0.80 0.78 0.74 0.66 0.60 0.57 0.55 0.53 0.50 0.50 0.51 0.50 0.46 0.41
0.85 0.92 0.98 1.04 1.04 1.02 1.04 1.04 0.98 0.92 0.90 0.87 0.84 0.84 0.87 0.87 0.82 0.81 0.78 0.75 0.69 0.65 0.61 0.59 0.57 0.54 0.53 0.52 0.52 0.51 0.49 0.46
0.81 0.88 0.91 0.92 0.99 0.99 0.96 0.92 0.89 0.89 0.87 0.88 0.87 0.85 0.79 0.77 0.76 0.71 0.68 0.62 0.58 0.58 0.59 0.58 0.55 0.51 0.48 0.46 0.46 0.45 0.47 0.51
0.70 0.73 0.78 0.82 0.86 0.88 0.88 0.84 0.81 0.85 0.87 0.88 0.86 0.83 0.77 0.73 0.72 0.66 0.61 0.56 0.54 0.53 0.54 0.48 0.43 0.41 0.41 0.42 0.42 0.45 0.46 0.51
0.68 0.69 0.72 0.76 0.80 0.83 0.82 0.82 0.81 0.86 0.85 0.82 0.81 0.75 0.75 0.76 0.68 0.64 0.55 0.53 0.48 0.47 0.43 0.42 0.40 0.39 0.38 0.39 0.41 0.43 0.46 0.51
0.65 0.68 0.72 0.75 0.79 0.82 0.82 0.82 0.81 0.82 0.80 0.78 0.77 0.76 0.72 0.65 0.62 0.56 0.52 0.47 0.43 0.39 0.40 0.38 0.37 0.36 0.36 0.38 0.38 0.41 0.44 0.47
0.64 0.68 0.72 0.76 0.81 0.84 0.85 0.84 0.80 0.79 0.77 0.76 0.73 0.73 0.72 0.62 0.54 0.50 0.45 0.43 0.41 0.39 0.37 0.36 0.36 0.37 0.37 0.37 0.39 0.41 0.40 0.41
0.64 0.68 0.74 0.79 0.83 0.82 0.82 0.79 0.75 0.75 0.74 0.72 0.71 0.73 0.60 0.53 0.49 0.45 0.42 0.42 0.40 0.36 0.36 0.36 0.36 0.36 0.38 0.36 0.38 0.38 0.37 0.38
0.63 0.68 0.73 0.77 0.78 0.77 0.75 0.73 0.74 0.72 0.72 0.73 0.76 0.63 0.52 0.48 0.45 0.43 0.42 0.40 0.38 0.36 0.36 0.36 0.36 0.35 0.35 0.34 0.34 0.35 0.34 0.33
0.61 0.66 0.69 0.71 0.71 0.71 0.69 0.70 0.69 0.71 0.72 0.69 0.60 0.54 0.50 0.46 0.43 0.43 0.42 0.39 0.37 0.36 0.37 0.36 0.35 0.35 0.35 0.36 0.34 0.34 0.32 0.31
0.59 0.63 0.65 0.67 0.67 0.67 0.66 0.65 0.70 0.71 0.65 0.59 0.50 0.50 0.48 0.43 0.42 0.42 0.41 0.38 0.37 0.37 0.37 0.37 0.35 0.35 0.34 0.33 0.31 0.30 0.29 0.26
0.53 0.58 0.61 0.64 0.62 0.64 0.62 0.66 0.68 0.66 0.60 0.50 0.48 0.48 0.45 0.43 0.43 0.42 0.39 0.38 0.38 0.38 0.36 0.35 0.36 0.34 0.31 0.30 0.28 0.26 0.24 0.23
0.51 0.55 0.60 0.60 0.58 0.60 0.62 0.63 0.62 0.59 0.53 0.52 0.50 0.43 0.42 0.42 0.42 0.39 0.37 0.36 0.36 0.36 0.37 0.35 0.34 0.33 0.31 0.29 0.27 0.25 0.23 0.22
0.50 0.55 0.58 0.59 0.57 0.58 0.60 0.58 0.56 0.57 0.54 0.50 0.44 0.42 0.40 0.41 0.37 0.36 0.35 0.34 0.35 0.35 0.34 0.35 0.33 0.34 0.32 0.29 0.26 0.24 0.22 0.22
0.51 0.54 0.58 0.59 0.60 0.59 0.56 0.56 0.56 0.55 0.51 0.45 0.39 0.42 0.41 0.38 0.36 0.35 0.34 0.35 0.34 0.33 0.34 0.34 0.33 0.34 0.32 0.28 0.25 0.24 0.23 0.23

GFSFLT1_prec_pwat_045.txt.gz
Precipitable_Water
0.69 0.76 0.83 0.91 0.99 1.05 1.10 1.12 1.14 1.17 1.16 1.17 1.20 1.18 1.14 1.08 1.01 0.96 0.95 0.92 0.86 0.76 0.70 0.67 0.66 0.64 0.61 0.58 0.53 0.53 0.48 0.46
0.68 0.77 0.87 0.95 1.01 1.06 1.13 1.16 1.19 1.12 1.08 1.10 1.11 1.06 1.01 0.97 0.94 0.92 0.88 0.82 0.74 0.71 0.70 0.69 0.68 0.64 0.61 0.58 0.53 0.48 0.45 0.45
0.62 0.73 0.87 0.90 0.97 1.07 1.11 1.18 1.15 1.09 1.12 1.10 1.04 0.93 0.89 0.88 0.87 0.85 0.80 0.76 0.73 0.72 0.71 0.68 0.68 0.66 0.60 0.55 0.50 0.43 0.42 0.43
0.58 0.66 0.82 0.92 0.96 1.04 1.09 1.14 1.11 1.10 1.16 1.09 0.97 0.92 0.88 0.80 0.75 0.74 0.79 0.78 0.76 0.74 0.72 0.70 0.69 0.63 0.57 0.52 0.47 0.43 0.38 0.42
0.66 0.69 0.84 0.92 0.99 1.12 1.18 1.16 1.14 1.13 1.14 0.97 0.91 0.79 0.67 0.70 0.74 0.79 0.79 0.81 0.79 0.78 0.73 0.69 0.64 0.60 0.54 0.51 0.49 0.45 0.41 0.37
0.74 0.79 0.87 1.01 1.08 1.09 1.16 1.15 1.14 1.14 1.03 0.99 0.84 0.75 0.77 0.78 0.78 0.79 0.83 0.80 0.79 0.78 0.73 0.68 0.62 0.55 0.50 0.48 0.45 0.40 0.36 0.34
0.85 0.93 1.01 1.03 1.04 1.09 1.13 1.09 1.04 1.04 1.01 0.92 0.85 0.79 0.76 0.76 0.80 0.81 0.81 0.81 0.77 0.74 0.71 0.65 0.62 0.54 0.48 0.43 0.35 0.35 0.35 0.35
0.85 0.89 0.94 0.97 0.99 1.04 1.05 1.08 1.01 1.00 0.93 0.87 0.85 0.81 0.80 0.80 0.81 0.81 0.75 0.71 0.67 0.66 0.67 0.63 0.54 0.46 0.35 0.35 0.37 0.37 0.35 0.36
0.82 0.87 0.92 0.94 0.97 1.01 0.98 0.98 0.92 0.95 0.90 0.87 0.86 0.81 0.79 0.80 0.80 0.78 0.73 0.72 0.70 0.70 0.66 0.55 0.45 0.36 0.36 0.38 0.39 0.40 0.41 0.40
0.74 0.83 0.88 0.91 0.93 0.88 0.91 0.95 0.93 0.88 0.88 0.87 0.83 0.82 0.82 0.80 0.78 0.74 0.75 0.73 0.67 0.62 0.54 0.45 0.39 0.37 0.41 0.43 0.40 0.40 0.40 0.40
0.72 0.77 0.80 0.83 0.83 0.88 0.90 0.89 0.86 0.87 0.88 0.86 0.82 0.80 0.80 0.78 0.73 0.71 0.74 0.70 0.62 0.54 0.49 0.41 0.39 0.43 0.42 0.41 0.41 0.40 0.35 0.34
0.62 0.67 0.73 0.78 0.82 0.85 0.86 0.85 0.83 0.83 0.83 0.83 0.83 0.82 0.80 0.77 0.72 0.69 0.69 0.69 0.60 0.46 0.42 0.40 0.42 0.43 0.41 0.39 0.36 0.34 0.34 0.32
0.63 0.64 0.67 0.69 0.70 0.72 0.76 0.80 0.81 0.83 0.83 0.82 0.81 0.81 0.79 0.73 0.70 0.69 0.68 0.62 0.49 0.45 0.44 0.44 0.42 0.43 0.40 0.39 0.33 0.33 0.34 0.33
0.66 0.67 0.67 0.68 0.72 0.81 0.84 0.82 0.81 0.80 0.81 0.81 0.82 0.78 0.73 0.69 0.66 0.68 0.62 0.55 0.49 0.47 0.46 0.43 0.41 0.41 0.40 0.39 0.35 0.37 0.37 0.33
0.65 0.68 0.69 0.73 0.84 0.93 0.93 0.85 0.85 0.82 0.79 0.77 0.74 0.70 0.69 0.64 0.65 0.59 0.59 0.55 0.47 0.46 0.48 0.41 0.44 0.43 0.41 0.40 0.36 0.36 0.34 0.33
0.62 0.66 0.72 0.81 0.85 0.89 0.90 0.87 0.82 0.78 0.72 0.71 0.68 0.66 0.64 0.61 0.60 0.63 0.57 0.50 0.48 0.48 0.42 0.45 0.43 0.42 0.43 0.39 0.35 0.35 0.34 0.31
0.53 0.64 0.73 0.74 0.78 0.79 0.80 0.75 0.73 0.72 0.70 0.67 0.61 0.59 0.58 0.60 0.64 0.56 0.52 0.50 0.48 0.45 0.44 0.41 0.43 0.40 0.40 0.38 0.35 0.33 0.32 0.30
0.48 0.60 0.67 0.73 0.74 0.73 0.68 0.69 0.71 0.69 0.65 0.60 0.59 0.58 0.60 0.63 0.56 0.52 0.50 0.48 0.44 0.45 0.43 0.41 0.37 0.38 0.39 0.37 0.33 0.33 0.32 0.30
0.46 0.53 0.60 0.66 0.67 0.66 0.67 0.68 0.66 0.64 0.61 0.59 0.57 0.58 0.61 0.57 0.54 0.52 0.47 0.46 0.44 0.43 0.41 0.38 0.36 0.37 0.37 0.36 0.33 0.33 0.33 0.32

GFSFLT1_prec_pwat_048.txt.gz
Precipitable_Water
0.87 0.87 0.95 0.95 0.92 0.98 0.88 0.95 1.02 1.11 1.14 1.14 1.14 1.15 1.12 1.08 1.00 0.96 0.97 0.94 0.91 0.84 0.76 0.70 0.65 0.62 0.62 0.62 0.57 0.53 0.51 0.48
0.82 0.84 0.89 0.89 0.94 0.95 0.91 0.96 1.07 1.12 1.08 1.03 1.05 1.01 1.04 0.99 0.98 0.96 0.92 0.89 0.85 0.76 0.68 0.64 0.65 0.64 0.63 0.62 0.56 0.51 0.46 0.45
0.77 0.81 0.83 0.86 0.90 0.96 1.00 1.00 1.08 1.12 1.07 1.09 1.09 1.07 1.05 1.00 0.95 0.90 0.85 0.81 0.77 0.68 0.67 0.67 0.66 0.65 0.64 0.60 0.54 0.45 0.43 0.43
0.70 0.76 0.80 0.86 0.87 0.91 0.98 1.06 1.11 1.14 1.12 1.09 1.07 1.08 0.97 0.86 0.83 0.80 0.84 0.76 0.72 0.73 0.71 0.71 0.68 0.68 0.63 0.58 0.52 0.47 0.40 0.41
0.72 0.76 0.81 0.86 0.90 0.99 1.04 1.10 1.11 1.17 1.11 1.04 1.02 0.90 0.78 0.80 0.79 0.77 0.75 0.75 0.76 0.75 0.71 0.69 0.71 0.71 0.66 0.58 0.53 0.50 0.44 0.36
0.71 0.79 0.83 0.92 1.00 1.05 1.12 1.17 1.13 1.14 1.10 1.09 1.00 0.84 0.85 0.80 0.73 0.73 0.78 0.79 0.78 0.72 0.72 0.72 0.70 0.66 0.63 0.61 0.56 0.49 0.42 0.33
0.75 0.86 0.92 0.97 1.06 1.10 1.15 1.12 1.09 1.14 1.11 1.07 0.91 0.82 0.77 0.72 0.73 0.76 0.78 0.79 0.78 0.77 0.78 0.75 0.69 0.63 0.65 0.60 0.51 0.40 0.34 0.33
0.73 0.81 0.89 0.96 0.98 1.09 1.11 1.09 1.05 1.09 1.06 0.96 0.89 0.81 0.78 0.76 0.78 0.80 0.79 0.75 0.79 0.77 0.73 0.73 0.68 0.63 0.59 0.53 0.37 0.34 0.36 0.38
0.72 0.83 0.88 0.91 1.03 1.15 1.10 1.07 1.00 1.00 0.99 0.95 0.93 0.86 0.83 0.84 0.84 0.83 0.83 0.79 0.76 0.79 0.71 0.74 0.66 0.63 0.55 0.39 0.37 0.39 0.41 0.42
0.68 0.79 0.86 0.94 1.04 1.05 1.10 1.05 1.02 0.99 0.98 0.91 0.87 0.87 0.85 0.87 0.85 0.86 0.80 0.82 0.77 0.75 0.71 0.65 0.65 0.56 0.41 0.39 0.38 0.40 0.42 0.41
0.72 0.80 0.82 0.92 0.98 1.03 1.04 1.00 0.93 0.94 0.93 0.90 0.87 0.88 0.90 0.88 0.86 0.83 0.79 0.81 0.74 0.74 0.77 0.64 0.54 0.43 0.38 0.40 0.41 0.43 0.39 0.38
0.65 0.74 0.83 0.91 0.94 0.91 0.86 0.87 0.89 0.92 0.93 0.93 0.90 0.89 0.88 0.87 0.85 0.77 0.81 0.80 0.77 0.71 0.63 0.51 0.45 0.41 0.44 0.44 0.41 0.42 0.38 0.37
0.56 0.59 0.63 0.68 0.72 0.75 0.77 0.84 0.88 0.91 0.89 0.88 0.82 0.82 0.86 0.84 0.83 0.82 0.81 0.77 0.74 0.67 0.58 0.50 0.45 0.45 0.46 0.40 0.43 0.41 0.39 0.37
0.62 0.68 0.69 0.72 0.75 0.81 0.85 0.88 0.94 0.94 0.93 0.86 0.82 0.87 0.83 0.90 0.75 0.70 0.79 0.71 0.66 0.60 0.56 0.53 0.46 0.45 0.44 0.46 0.42 0.43 0.42 0.37
0.64 0.68 0.73 0.83 0.87 0.94 0.92 0.91 0.96 0.93 0.89 0.92 0.86 0.82 0.83 0.69 0.70 0.75 0.67 0.61 0.59 0.58 0.56 0.47 0.47 0.48 0.46 0.48 0.45 0.43 0.40 0.37
0.64 0.67 0.74 0.80 0.84 0.86 0.87 0.89 0.92 0.93 0.90 0.84 0.80 0.78 0.71 0.70 0.69 0.66 0.67 0.62 0.60 0.56 0.49 0.48 0.49 0.48 0.47 0.43 0.41 0.40 0.38 0.34
0.56 0.68 0.71 0.72 0.77 0.80 0.85 0.88 0.90 0.88 0.81 0.73 0.73 0.71 0.67 0.68 0.67 0.67 0.64 0.62 0.56 0.52 0.50 0.49 0.46 0.44 0.43 0.42 0.40 0.37 0.34 0.32
0.50 0.53 0.60 0.69 0.74 0.79 0.81 0.84 0.82 0.72 0.68 0.70 0.68 0.66 0.65 0.64 0.64 0.62 0.61 0.57 0.56 0.51 0.47 0.45 0.43 0.41 0.39 0.37 0.37 0.35 0.33 0.30
0.48 0.53 0.58 0.64 0.68 0.67 0.67 0.67 0.65 0.66 0.65 0.63 0.62 0.62 0.63 0.64 0.64 0.61 0.62 0.57 0.49 0.46 0.43 0.41 0.37 0.35 0.36 0.35 0.35 0.33 0.31 0.30